Year,Month,Day,Hour,Minute,Value (Times are PST for barometer in hPa)
2016,03,06,00,00,985.91
2016,03,06,00,01,985.97
2016,03,06,00,02,985.91
2016,03,06,00,03,986.02
2016,03,06,00,04,985.98
2016,03,06,00,05,986.05
2016,03,06,00,06,986.08
2016,03,06,00,07,985.98
2016,03,06,00,08,986.08
2016,03,06,00,09,986.05
2016,03,06,00,10,986.02
2016,03,06,00,11,985.95
2016,03,06,00,12,985.98
2016,03,06,00,13,986.05
2016,03,06,00,14,985.98
2016,03,06,00,15,985.91
2016,03,06,00,16,985.91
2016,03,06,00,17,985.95
2016,03,06,00,18,986.02
2016,03,06,00,19,985.98
2016,03,06,00,20,986.08
2016,03,06,00,21,986.08
2016,03,06,00,22,986.05
2016,03,06,00,23,986.05
2016,03,06,00,24,986.05
2016,03,06,00,25,986.12
2016,03,06,00,26,986.03
2016,03,06,00,27,986.12
2016,03,06,00,28,986.02
2016,03,06,00,29,986.05
2016,03,06,00,30,985.98
2016,03,06,00,31,986.02
2016,03,06,00,32,985.98
2016,03,06,00,33,986.12
2016,03,06,00,34,986.05
2016,03,06,00,35,986.05
2016,03,06,00,36,986.08
2016,03,06,00,37,986.05
2016,03,06,00,38,986.12
2016,03,06,00,39,986.17
2016,03,06,00,40,986.02
2016,03,06,00,41,986.05
2016,03,06,00,42,986.12
2016,03,06,00,43,986.08
2016,03,06,00,44,986.12
2016,03,06,00,45,986.08
2016,03,06,00,46,986.02
2016,03,06,00,47,986.05
2016,03,06,00,48,986.05
2016,03,06,00,49,986.05
2016,03,06,00,50,986.25
2016,03,06,00,51,986.18
2016,03,06,00,52,986.25
2016,03,06,00,53,986.22
2016,03,06,00,54,986.22
2016,03,06,00,55,986.15
2016,03,06,00,56,986.15
2016,03,06,00,57,986.22
2016,03,06,00,58,986.12
2016,03,06,00,59,986.08
2016,03,06,01,00,986.28
2016,03,06,01,01,986.05
2016,03,06,01,02,986.12
2016,03,06,01,03,986.18
2016,03,06,01,04,986.12
2016,03,06,01,05,986.06
2016,03,06,01,06,986.18
2016,03,06,01,07,986.22
2016,03,06,01,08,986.12
2016,03,06,01,09,986.22
2016,03,06,01,10,986.12
2016,03,06,01,11,986.22
2016,03,06,01,12,986.15
2016,03,06,01,13,986.18
2016,03,06,01,14,986.18
2016,03,06,01,15,986.05
2016,03,06,01,16,986.12
2016,03,06,01,17,986.15
2016,03,06,01,18,985.98
2016,03,06,01,19,985.97
2016,03,06,01,20,985.88
2016,03,06,01,21,985.88
2016,03,06,01,22,985.91
2016,03,06,01,23,985.88
2016,03,06,01,24,985.78
2016,03,06,01,25,985.91
2016,03,06,01,26,985.88
2016,03,06,01,27,985.80
2016,03,06,01,28,985.71
2016,03,06,01,29,985.74
2016,03,06,01,30,985.74
2016,03,06,01,31,985.57
2016,03,06,01,32,985.68
2016,03,06,01,33,985.69
2016,03,06,01,34,985.81
2016,03,06,01,35,985.95
2016,03,06,01,36,985.95
2016,03,06,01,37,985.95
2016,03,06,01,38,986.08
2016,03,06,01,39,986.15
2016,03,06,01,40,986.22
2016,03,06,01,41,986.35
2016,03,06,01,42,986.42
2016,03,06,01,43,986.42
2016,03,06,01,44,986.52
2016,03,06,01,45,986.46
2016,03,06,01,46,986.47
2016,03,06,01,47,986.69
2016,03,06,01,48,986.90
2016,03,06,01,49,986.86
2016,03,06,01,50,987.04
2016,03,06,01,51,987.21
2016,03,06,01,52,987.31
2016,03,06,01,53,987.54
2016,03,06,01,54,987.50
2016,03,06,01,55,987.30
2016,03,06,01,56,987.37
2016,03,06,01,57,987.23
2016,03,06,01,58,987.30
2016,03,06,01,59,987.30
2016,03,06,02,00,987.28
2016,03,06,02,01,987.40
2016,03,06,02,02,987.34
2016,03,06,02,03,987.37
2016,03,06,02,04,987.34
2016,03,06,02,05,987.44
2016,03,06,02,06,987.54
2016,03,06,02,07,987.57
2016,03,06,02,08,987.61
2016,03,06,02,09,987.57
2016,03,06,02,10,987.54
2016,03,06,02,11,987.47
2016,03,06,02,12,987.47
2016,03,06,02,13,987.47
2016,03,06,02,14,987.37
2016,03,06,02,15,987.34
2016,03,06,02,16,987.40
2016,03,06,02,17,987.44
2016,03,06,02,18,987.44
2016,03,06,02,19,987.30
2016,03,06,02,20,987.23
2016,03,06,02,21,987.30
2016,03,06,02,22,987.34
2016,03,06,02,23,987.44
2016,03,06,02,24,987.30
2016,03,06,02,25,987.30
2016,03,06,02,26,987.27
2016,03,06,02,27,987.23
2016,03,06,02,28,987.17
2016,03,06,02,29,987.23
2016,03,06,02,30,987.17
2016,03,06,02,31,987.20
2016,03,06,02,32,987.06
2016,03,06,02,33,987.13
2016,03,06,02,34,987.20
2016,03,06,02,35,987.20
2016,03,06,02,36,987.27
2016,03,06,02,37,987.17
2016,03,06,02,38,987.22
2016,03,06,02,39,987.10
2016,03,06,02,40,987.13
2016,03,06,02,41,987.13
2016,03,06,02,42,987.06
2016,03,06,02,43,987.03
2016,03,06,02,44,986.83
2016,03,06,02,45,987.11
2016,03,06,02,46,986.73
2016,03,06,02,47,986.83
2016,03,06,02,48,986.79
2016,03,06,02,49,986.72
2016,03,06,02,50,986.56
2016,03,06,02,51,986.76
2016,03,06,02,52,986.70
2016,03,06,02,53,986.90
2016,03,06,02,54,986.90
2016,03,06,02,55,986.83
2016,03,06,02,56,986.73
2016,03,06,02,57,986.86
2016,03,06,02,58,986.73
2016,03,06,02,59,986.73
2016,03,06,03,00,987.03
2016,03,06,03,01,986.93
2016,03,06,03,02,987.00
2016,03,06,03,03,986.86
2016,03,06,03,04,986.90
2016,03,06,03,05,986.94
2016,03,06,03,06,987.06
2016,03,06,03,07,987.10
2016,03,06,03,08,987.20
2016,03,06,03,09,987.17
2016,03,06,03,10,987.34
2016,03,06,03,11,987.37
2016,03,06,03,12,987.44
2016,03,06,03,13,987.40
2016,03,06,03,14,987.39
2016,03,06,03,15,987.27
2016,03,06,03,16,987.34
2016,03,06,03,17,987.27
2016,03,06,03,18,987.30
2016,03,06,03,19,987.27
2016,03,06,03,20,987.27
2016,03,06,03,21,987.27
2016,03,06,03,22,987.28
2016,03,06,03,23,987.44
2016,03,06,03,24,987.57
2016,03,06,03,25,987.54
2016,03,06,03,26,987.47
2016,03,06,03,27,987.40
2016,03,06,03,28,987.36
2016,03,06,03,29,987.24
2016,03,06,03,30,987.51
2016,03,06,03,31,987.57
2016,03,06,03,32,987.47
2016,03,06,03,33,987.52
2016,03,06,03,34,987.64
2016,03,06,03,35,987.60
2016,03,06,03,36,987.52
2016,03,06,03,37,987.68
2016,03,06,03,38,987.81
2016,03,06,03,39,987.95
2016,03,06,03,40,987.84
2016,03,06,03,41,987.88
2016,03,06,03,42,987.95
2016,03,06,03,43,987.99
2016,03,06,03,44,988.22
2016,03,06,03,45,988.12
2016,03,06,03,46,988.25
2016,03,06,03,47,988.27
2016,03,06,03,48,988.15
2016,03,06,03,49,988.39
2016,03,06,03,50,988.39
2016,03,06,03,51,988.25
2016,03,06,03,52,988.18
2016,03,06,03,53,988.28
2016,03,06,03,54,988.28
2016,03,06,03,55,988.32
2016,03,06,03,56,988.35
2016,03,06,03,57,988.25
2016,03,06,03,58,988.22
2016,03,06,03,59,988.39
2016,03,06,04,00,988.32
2016,03,06,04,01,988.22
2016,03,06,04,02,988.19
2016,03,06,04,03,988.42
2016,03,06,04,04,988.52
2016,03,06,04,05,988.66
2016,03,06,04,06,988.79
2016,03,06,04,07,988.66
2016,03,06,04,08,988.66
2016,03,06,04,09,988.76
2016,03,06,04,10,988.93
2016,03,06,04,11,989.00
2016,03,06,04,12,989.10
2016,03,06,04,13,989.30
2016,03,06,04,14,989.33
2016,03,06,04,15,989.23
2016,03,06,04,16,989.30
2016,03,06,04,17,989.50
2016,03,06,04,18,989.44
2016,03,06,04,19,989.40
2016,03,06,04,20,989.37
2016,03,06,04,21,989.37
2016,03,06,04,22,989.47
2016,03,06,04,23,989.47
2016,03,06,04,24,989.44
2016,03,06,04,25,989.58
2016,03,06,04,26,989.71
2016,03,06,04,27,989.81
2016,03,06,04,28,989.88
2016,03,06,04,29,990.04
2016,03,06,04,30,990.11
2016,03,06,04,31,990.18
2016,03,06,04,32,990.21
2016,03,06,04,33,990.32
2016,03,06,04,34,990.26
2016,03,06,04,35,990.41
2016,03,06,04,36,990.25
2016,03,06,04,37,990.26
2016,03,06,04,38,990.42
2016,03,06,04,39,990.35
2016,03,06,04,40,990.39
2016,03,06,04,41,990.49
2016,03,06,04,42,990.59
2016,03,06,04,43,990.65
2016,03,06,04,44,990.69
2016,03,06,04,45,990.76
2016,03,06,04,46,990.79
2016,03,06,04,47,990.86
2016,03,06,04,48,990.99
2016,03,06,04,49,991.03
2016,03,06,04,50,991.09
2016,03,06,04,51,991.16
2016,03,06,04,52,991.21
2016,03,06,04,53,991.30
2016,03,06,04,54,991.33
2016,03,06,04,55,991.33
2016,03,06,04,56,991.33
2016,03,06,04,57,991.33
2016,03,06,04,58,991.43
2016,03,06,04,59,991.26
2016,03,06,05,00,991.30
2016,03,06,05,01,991.23
2016,03,06,05,02,991.30
2016,03,06,05,03,991.26
2016,03,06,05,04,991.23
2016,03,06,05,05,991.21
2016,03,06,05,06,991.30
2016,03,06,05,07,991.26
2016,03,06,05,08,991.20
2016,03,06,05,09,991.13
2016,03,06,05,10,991.13
2016,03,06,05,11,991.09
2016,03,06,05,12,991.13
2016,03,06,05,13,991.13
2016,03,06,05,14,991.13
2016,03,06,05,15,991.09
2016,03,06,05,16,991.14
2016,03,06,05,17,991.23
2016,03,06,05,18,991.26
2016,03,06,05,19,991.33
2016,03,06,05,20,991.40
2016,03,06,05,21,991.47
2016,03,06,05,22,991.53
2016,03,06,05,23,991.57
2016,03,06,05,24,991.64
2016,03,06,05,25,991.57
2016,03,06,05,26,991.57
2016,03,06,05,27,991.60
2016,03,06,05,28,991.64
2016,03,06,05,29,991.67
2016,03,06,05,30,991.70
2016,03,06,05,31,991.74
2016,03,06,05,32,991.81
2016,03,06,05,33,991.84
2016,03,06,05,34,991.87
2016,03,06,05,35,991.94
2016,03,06,05,36,991.94
2016,03,06,05,37,991.94
2016,03,06,05,38,992.01
2016,03,06,05,39,992.09
2016,03,06,05,40,992.18
2016,03,06,05,41,992.21
2016,03,06,05,42,992.28
2016,03,06,05,43,992.42
2016,03,06,05,44,992.45
2016,03,06,05,45,992.42
2016,03,06,05,46,992.48
2016,03,06,05,47,992.48
2016,03,06,05,48,992.52
2016,03,06,05,49,992.23
2016,03,06,05,50,991.94
2016,03,06,05,51,991.60
2016,03,06,05,52,991.81
2016,03,06,05,53,991.98
2016,03,06,05,54,992.21
2016,03,06,05,55,992.35
2016,03,06,05,56,992.49
2016,03,06,05,57,992.65
2016,03,06,05,58,992.69
2016,03,06,05,59,992.75
2016,03,06,06,00,992.82
2016,03,06,06,01,992.82
2016,03,06,06,02,992.86
2016,03,06,06,03,992.89
2016,03,06,06,04,992.89
2016,03,06,06,05,992.99
2016,03,06,06,06,993.03
2016,03,06,06,07,993.06
2016,03,06,06,08,993.03
2016,03,06,06,09,993.09
2016,03,06,06,10,993.03
2016,03,06,06,11,993.13
2016,03,06,06,12,993.16
2016,03,06,06,13,993.16
2016,03,06,06,14,993.19
2016,03,06,06,15,993.19
2016,03,06,06,16,993.30
2016,03,06,06,17,993.33
2016,03,06,06,18,993.30
2016,03,06,06,19,993.30
2016,03,06,06,20,993.30
2016,03,06,06,21,993.33
2016,03,06,06,22,993.36
2016,03,06,06,23,993.36
2016,03,06,06,24,993.40
2016,03,06,06,25,993.36
2016,03,06,06,26,993.43
2016,03,06,06,27,993.40
2016,03,06,06,28,993.43
2016,03,06,06,29,993.47
2016,03,06,06,30,993.50
2016,03,06,06,31,993.47
2016,03,06,06,32,993.50
2016,03,06,06,33,993.50
2016,03,06,06,34,993.47
2016,03,06,06,35,993.50
2016,03,06,06,36,993.57
2016,03,06,06,37,993.60
2016,03,06,06,38,993.60
2016,03,06,06,39,993.70
2016,03,06,06,40,993.80
2016,03,06,06,41,993.80
2016,03,06,06,42,993.80
2016,03,06,06,43,993.94
2016,03,06,06,44,993.97
2016,03,06,06,45,994.01
2016,03,06,06,46,994.01
2016,03,06,06,47,993.97
2016,03,06,06,48,993.70
2016,03,06,06,49,993.91
2016,03,06,06,50,993.91
2016,03,06,06,51,993.87
2016,03,06,06,52,993.94
2016,03,06,06,53,993.87
2016,03,06,06,54,993.85
2016,03,06,06,55,994.01
2016,03,06,06,56,994.04
2016,03,06,06,57,994.04
2016,03,06,06,58,994.14
2016,03,06,06,59,994.07
2016,03,06,07,00,994.04
2016,03,06,07,01,993.94
2016,03,06,07,02,993.87
2016,03,06,07,03,993.87
2016,03,06,07,04,993.87
2016,03,06,07,05,993.87
2016,03,06,07,06,993.77
2016,03,06,07,07,993.91
2016,03,06,07,08,993.87
2016,03,06,07,09,993.91
2016,03,06,07,10,993.91
2016,03,06,07,11,993.97
2016,03,06,07,12,993.94
2016,03,06,07,13,993.87
2016,03,06,07,14,993.87
2016,03,06,07,15,993.84
2016,03,06,07,16,993.80
2016,03,06,07,17,993.84
2016,03,06,07,18,993.87
2016,03,06,07,19,993.91
2016,03,06,07,20,993.97
2016,03,06,07,21,994.07
2016,03,06,07,22,994.11
2016,03,06,07,23,994.24
2016,03,06,07,24,994.21
2016,03,06,07,25,994.24
2016,03,06,07,26,994.31
2016,03,06,07,27,994.35
2016,03,06,07,28,994.31
2016,03,06,07,29,994.38
2016,03,06,07,30,994.38
2016,03,06,07,31,994.48
2016,03,06,07,32,994.52
2016,03,06,07,33,994.55
2016,03,06,07,34,994.62
2016,03,06,07,35,994.65
2016,03,06,07,36,994.65
2016,03,06,07,37,994.65
2016,03,06,07,38,994.65
2016,03,06,07,39,994.65
2016,03,06,07,40,994.65
2016,03,06,07,41,994.62
2016,03,06,07,42,994.65
2016,03,06,07,43,994.65
2016,03,06,07,44,994.75
2016,03,06,07,45,994.75
2016,03,06,07,46,994.75
2016,03,06,07,47,994.82
2016,03,06,07,48,994.85
2016,03,06,07,49,994.82
2016,03,06,07,50,994.89
2016,03,06,07,51,994.96
2016,03,06,07,52,994.99
2016,03,06,07,53,995.06
2016,03,06,07,54,995.12
2016,03,06,07,55,995.16
2016,03,06,07,56,995.16
2016,03,06,07,57,995.16
2016,03,06,07,58,995.23
2016,03,06,07,59,995.23
2016,03,06,08,00,995.26
2016,03,06,08,01,995.23
2016,03,06,08,02,995.23
2016,03,06,08,03,995.23
2016,03,06,08,04,995.26
2016,03,06,08,05,995.27
2016,03,06,08,06,995.40
2016,03,06,08,07,995.43
2016,03,06,08,08,995.40
2016,03,06,08,09,995.46
2016,03,06,08,10,995.50
2016,03,06,08,11,995.56
2016,03,06,08,12,995.60
2016,03,06,08,13,995.67
2016,03,06,08,14,995.64
2016,03,06,08,15,995.73
2016,03,06,08,16,995.70
2016,03,06,08,17,995.67
2016,03,06,08,18,995.70
2016,03,06,08,19,995.67
2016,03,06,08,20,995.63
2016,03,06,08,21,995.63
2016,03,06,08,22,995.63
2016,03,06,08,23,995.60
2016,03,06,08,24,995.63
2016,03,06,08,25,995.60
2016,03,06,08,26,995.63
2016,03,06,08,27,995.60
2016,03,06,08,28,995.63
2016,03,06,08,29,995.63
2016,03,06,08,30,995.63
2016,03,06,08,31,995.60
2016,03,06,08,32,995.56
2016,03,06,08,33,995.46
2016,03,06,08,34,995.56
2016,03,06,08,35,995.56
2016,03,06,08,36,995.60
2016,03,06,08,37,995.63
2016,03,06,08,38,995.56
2016,03,06,08,39,995.60
2016,03,06,08,40,995.63
2016,03,06,08,41,995.56
2016,03,06,08,42,995.50
2016,03,06,08,43,995.53
2016,03,06,08,44,995.53
2016,03,06,08,45,995.53
2016,03,06,08,46,995.50
2016,03,06,08,47,995.50
2016,03,06,08,48,995.53
2016,03,06,08,49,995.50
2016,03,06,08,50,995.53
2016,03,06,08,51,995.53
2016,03,06,08,52,995.53
2016,03,06,08,53,995.53
2016,03,06,08,54,995.56
2016,03,06,08,55,995.60
2016,03,06,08,56,995.60
2016,03,06,08,57,995.63
2016,03,06,08,58,995.63
2016,03,06,08,59,995.63
2016,03,06,09,00,995.63
2016,03,06,09,01,995.67
2016,03,06,09,02,995.73
2016,03,06,09,03,995.87
2016,03,06,09,04,995.94
2016,03,06,09,05,996.01
2016,03,06,09,06,996.07
2016,03,06,09,07,996.14
2016,03,06,09,08,996.17
2016,03,06,09,09,996.14
2016,03,06,09,10,996.14
2016,03,06,09,11,996.11
2016,03,06,09,12,996.07
2016,03,06,09,13,996.04
2016,03,06,09,14,996.04
2016,03,06,09,15,996.01
2016,03,06,09,16,995.94
2016,03,06,09,17,995.97
2016,03,06,09,18,995.97
2016,03,06,09,19,995.97
2016,03,06,09,20,995.94
2016,03,06,09,21,995.97
2016,03,06,09,22,996.01
2016,03,06,09,23,996.04
2016,03,06,09,24,996.07
2016,03,06,09,25,996.07
2016,03,06,09,26,996.11
2016,03,06,09,27,996.17
2016,03,06,09,28,996.17
2016,03,06,09,29,996.17
2016,03,06,09,30,996.17
2016,03,06,09,31,996.17
2016,03,06,09,32,996.17
2016,03,06,09,33,996.21
2016,03,06,09,34,996.21
2016,03,06,09,35,996.24
2016,03,06,09,36,996.28
2016,03,06,09,37,996.31
2016,03,06,09,38,996.24
2016,03,06,09,39,996.31
2016,03,06,09,40,996.31
2016,03,06,09,41,996.38
2016,03,06,09,42,996.41
2016,03,06,09,43,996.41
2016,03,06,09,44,996.41
2016,03,06,09,45,996.45
2016,03,06,09,46,996.41
2016,03,06,09,47,996.41
2016,03,06,09,48,996.41
2016,03,06,09,49,996.45
2016,03,06,09,50,996.41
2016,03,06,09,51,996.45
2016,03,06,09,52,996.45
2016,03,06,09,53,996.45
2016,03,06,09,54,996.45
2016,03,06,09,55,996.45
2016,03,06,09,56,996.45
2016,03,06,09,57,996.41
2016,03,06,09,58,996.45
2016,03,06,09,59,996.41
2016,03,06,10,00,996.41
2016,03,06,10,01,996.45
2016,03,06,10,02,996.41
2016,03,06,10,03,996.41
2016,03,06,10,04,996.45
2016,03,06,10,05,996.45
2016,03,06,10,06,996.45
2016,03,06,10,07,996.41
2016,03,06,10,08,996.38
2016,03,06,10,09,996.45
2016,03,06,10,10,996.34
2016,03,06,10,11,996.34
2016,03,06,10,12,996.31
2016,03,06,10,13,996.31
2016,03,06,10,14,996.31
2016,03,06,10,15,996.31
2016,03,06,10,16,996.28
2016,03,06,10,17,996.38
2016,03,06,10,18,996.31
2016,03,06,10,19,996.34
2016,03,06,10,20,996.28
2016,03,06,10,21,996.34
2016,03,06,10,22,996.28
2016,03,06,10,23,996.21
2016,03,06,10,24,996.24
2016,03,06,10,25,996.28
2016,03,06,10,26,996.29
2016,03,06,10,27,996.48
2016,03,06,10,28,996.38
2016,03,06,10,29,996.41
2016,03,06,10,30,996.51
2016,03,06,10,31,996.51
2016,03,06,10,32,996.65
2016,03,06,10,33,996.58
2016,03,06,10,34,996.65
2016,03,06,10,35,996.58
2016,03,06,10,36,996.61
2016,03,06,10,37,996.58
2016,03,06,10,38,996.61
2016,03,06,10,39,996.58
2016,03,06,10,40,996.72
2016,03,06,10,41,996.72
2016,03,06,10,42,996.68
2016,03,06,10,43,996.65
2016,03,06,10,44,996.72
2016,03,06,10,45,996.72
2016,03,06,10,46,996.75
2016,03,06,10,47,996.78
2016,03,06,10,48,996.82
2016,03,06,10,49,996.85
2016,03,06,10,50,996.89
2016,03,06,10,51,996.92
2016,03,06,10,52,996.95
2016,03,06,10,53,996.99
2016,03,06,10,54,996.99
2016,03,06,10,55,997.09
2016,03,06,10,56,997.09
2016,03,06,10,57,997.12
2016,03,06,10,58,997.05
2016,03,06,10,59,997.02
2016,03,06,11,00,997.09
2016,03,06,11,01,997.16
2016,03,06,11,02,997.16
2016,03,06,11,03,997.19
2016,03,06,11,04,997.22
2016,03,06,11,05,997.19
2016,03,06,11,06,997.22
2016,03,06,11,07,997.22
2016,03,06,11,08,997.26
2016,03,06,11,09,997.26
2016,03,06,11,10,997.29
2016,03,06,11,11,997.33
2016,03,06,11,12,997.33
2016,03,06,11,13,997.36
2016,03,06,11,14,997.33
2016,03,06,11,15,997.33
2016,03,06,11,16,997.33
2016,03,06,11,17,997.33
2016,03,06,11,18,997.33
2016,03,06,11,19,997.33
2016,03,06,11,20,997.36
2016,03,06,11,21,997.33
2016,03,06,11,22,997.36
2016,03,06,11,23,997.33
2016,03,06,11,24,997.29
2016,03,06,11,25,997.33
2016,03,06,11,26,997.36
2016,03,06,11,27,997.33
2016,03,06,11,28,997.33
2016,03,06,11,29,997.36
2016,03,06,11,30,997.39
2016,03,06,11,31,997.36
2016,03,06,11,32,997.39
2016,03,06,11,33,997.36
2016,03,06,11,34,997.33
2016,03,06,11,35,997.39
2016,03,06,11,36,997.40
2016,03,06,11,37,997.49
2016,03,06,11,38,997.39
2016,03,06,11,39,997.33
2016,03,06,11,40,997.36
2016,03,06,11,41,997.29
2016,03,06,11,42,997.33
2016,03,06,11,43,997.29
2016,03,06,11,44,997.29
2016,03,06,11,45,997.29
2016,03,06,11,46,997.29
2016,03,06,11,47,997.29
2016,03,06,11,48,997.26
2016,03,06,11,49,997.33
2016,03,06,11,50,997.26
2016,03,06,11,51,997.26
2016,03,06,11,52,997.29
2016,03,06,11,53,997.33
2016,03,06,11,54,997.33
2016,03,06,11,55,997.43
2016,03,06,11,56,997.36
2016,03,06,11,57,997.33
2016,03,06,11,58,997.33
2016,03,06,11,59,997.36
2016,03,06,12,00,997.36
2016,03,06,12,01,997.36
2016,03,06,12,02,997.46
2016,03,06,12,03,997.36
2016,03,06,12,04,997.50
2016,03,06,12,05,997.46
2016,03,06,12,06,997.46
2016,03,06,12,07,997.53
2016,03,06,12,08,997.53
2016,03,06,12,09,997.50
2016,03,06,12,10,997.56
2016,03,06,12,11,997.60
2016,03,06,12,12,997.53
2016,03,06,12,13,997.56
2016,03,06,12,14,997.56
2016,03,06,12,15,997.56
2016,03,06,12,16,997.60
2016,03,06,12,17,997.60
2016,03,06,12,18,997.66
2016,03,06,12,19,997.63
2016,03,06,12,20,997.66
2016,03,06,12,21,997.63
2016,03,06,12,22,997.63
2016,03,06,12,23,997.70
2016,03,06,12,24,997.70
2016,03,06,12,25,997.70
2016,03,06,12,26,997.77
2016,03,06,12,27,997.73
2016,03,06,12,28,997.70
2016,03,06,12,29,997.77
2016,03,06,12,30,997.80
2016,03,06,12,31,997.77
2016,03,06,12,32,997.80
2016,03,06,12,33,997.73
2016,03,06,12,34,997.73
2016,03,06,12,35,997.70
2016,03,06,12,36,997.73
2016,03,06,12,37,997.80
2016,03,06,12,38,997.80
2016,03,06,12,39,997.80
2016,03,06,12,40,997.80
2016,03,06,12,41,997.87
2016,03,06,12,42,997.94
2016,03,06,12,43,997.90
2016,03,06,12,44,997.97
2016,03,06,12,45,998.00
2016,03,06,12,46,997.94
2016,03,06,12,47,997.97
2016,03,06,12,48,998.00
2016,03,06,12,49,998.07
2016,03,06,12,50,998.07
2016,03,06,12,51,998.10
2016,03,06,12,52,998.14
2016,03,06,12,53,998.17
2016,03,06,12,54,998.21
2016,03,06,12,55,998.17
2016,03,06,12,56,998.10
2016,03,06,12,57,998.17
2016,03,06,12,58,998.21
2016,03,06,12,59,998.27
2016,03,06,13,00,998.38
2016,03,06,13,01,998.48
2016,03,06,13,02,998.48
2016,03,06,13,03,998.58
2016,03,06,13,04,998.68
2016,03,06,13,05,998.65
2016,03,06,13,06,998.61
2016,03,06,13,07,998.54
2016,03,06,13,08,998.65
2016,03,06,13,09,998.65
2016,03,06,13,10,998.54
2016,03,06,13,11,998.48
2016,03,06,13,12,998.48
2016,03,06,13,13,998.51
2016,03,06,13,14,998.58
2016,03,06,13,15,998.51
2016,03,06,13,16,998.54
2016,03,06,13,17,998.54
2016,03,06,13,18,998.48
2016,03,06,13,19,998.51
2016,03,06,13,20,998.44
2016,03,06,13,21,998.54
2016,03,06,13,22,998.54
2016,03,06,13,23,998.58
2016,03,06,13,24,998.65
2016,03,06,13,25,998.71
2016,03,06,13,26,998.65
2016,03,06,13,27,998.71
2016,03,06,13,28,998.68
2016,03,06,13,29,998.75
2016,03,06,13,30,998.71
2016,03,06,13,31,998.68
2016,03,06,13,32,998.65
2016,03,06,13,33,998.54
2016,03,06,13,34,998.51
2016,03,06,13,35,998.48
2016,03,06,13,36,998.41
2016,03,06,13,37,998.34
2016,03,06,13,38,998.31
2016,03,06,13,39,998.31
2016,03,06,13,40,998.27
2016,03,06,13,41,998.34
2016,03,06,13,42,998.38
2016,03,06,13,43,998.41
2016,03,06,13,44,998.48
2016,03,06,13,45,998.51
2016,03,06,13,46,998.51
2016,03,06,13,47,998.54
2016,03,06,13,48,998.51
2016,03,06,13,49,998.58
2016,03,06,13,50,998.58
2016,03,06,13,51,998.54
2016,03,06,13,52,998.58
2016,03,06,13,53,998.54
2016,03,06,13,54,998.58
2016,03,06,13,55,998.61
2016,03,06,13,56,998.58
2016,03,06,13,57,998.58
2016,03,06,13,58,998.58
2016,03,06,13,59,998.61
2016,03,06,14,00,998.58
2016,03,06,14,01,998.61
2016,03,06,14,02,998.58
2016,03,06,14,03,998.58
2016,03,06,14,04,998.58
2016,03,06,14,05,998.58
2016,03,06,14,06,998.58
2016,03,06,14,07,998.65
2016,03,06,14,08,998.65
2016,03,06,14,09,998.65
2016,03,06,14,10,998.65
2016,03,06,14,11,998.65
2016,03,06,14,12,998.65
2016,03,06,14,13,998.61
2016,03,06,14,14,998.61
2016,03,06,14,15,998.65
2016,03,06,14,16,998.65
2016,03,06,14,17,998.68
2016,03,06,14,18,998.71
2016,03,06,14,19,998.75
2016,03,06,14,20,998.71
2016,03,06,14,21,998.71
2016,03,06,14,22,998.71
2016,03,06,14,23,998.78
2016,03,06,14,24,998.78
2016,03,06,14,25,998.75
2016,03,06,14,26,998.78
2016,03,06,14,27,998.78
2016,03,06,14,28,998.78
2016,03,06,14,29,998.82
2016,03,06,14,30,998.85
2016,03,06,14,31,998.85
2016,03,06,14,32,998.82
2016,03,06,14,33,998.82
2016,03,06,14,34,998.82
2016,03,06,14,35,998.88
2016,03,06,14,36,998.85
2016,03,06,14,37,998.88
2016,03,06,14,38,998.95
2016,03,06,14,39,998.99
2016,03,06,14,40,999.02
2016,03,06,14,41,998.95
2016,03,06,14,42,999.02
2016,03,06,14,43,999.02
2016,03,06,14,44,998.99
2016,03,06,14,45,998.88
2016,03,06,14,46,998.92
2016,03,06,14,47,998.95
2016,03,06,14,48,998.95
2016,03,06,14,49,999.02
2016,03,06,14,50,999.09
2016,03,06,14,51,999.02
2016,03,06,14,52,999.02
2016,03,06,14,53,998.99
2016,03,06,14,54,999.02
2016,03,06,14,55,999.02
2016,03,06,14,56,999.05
2016,03,06,14,57,999.05
2016,03,06,14,58,998.95
2016,03,06,14,59,998.99
2016,03,06,15,00,999.02
2016,03,06,15,01,999.02
2016,03,06,15,02,999.02
2016,03,06,15,03,999.02
2016,03,06,15,04,999.05
2016,03,06,15,05,999.05
2016,03,06,15,06,999.02
2016,03,06,15,07,999.05
2016,03,06,15,08,999.05
2016,03,06,15,09,999.05
2016,03,06,15,10,999.05
2016,03,06,15,11,999.05
2016,03,06,15,12,999.09
2016,03,06,15,13,999.09
2016,03,06,15,14,999.12
2016,03,06,15,15,999.12
2016,03,06,15,16,999.12
2016,03,06,15,17,999.09
2016,03,06,15,18,999.12
2016,03,06,15,19,999.12
2016,03,06,15,20,999.12
2016,03,06,15,21,999.22
2016,03,06,15,22,999.12
2016,03,06,15,23,999.12
2016,03,06,15,24,999.05
2016,03,06,15,25,998.95
2016,03,06,15,26,998.95
2016,03,06,15,27,998.95
2016,03,06,15,28,998.92
2016,03,06,15,29,998.95
2016,03,06,15,30,998.95
2016,03,06,15,31,998.99
2016,03,06,15,32,998.99
2016,03,06,15,33,999.02
2016,03,06,15,34,998.99
2016,03,06,15,35,999.02
2016,03,06,15,36,998.99
2016,03,06,15,37,999.02
2016,03,06,15,38,999.02
2016,03,06,15,39,999.02
2016,03,06,15,40,999.02
2016,03,06,15,41,999.02
2016,03,06,15,42,999.02
2016,03,06,15,43,999.05
2016,03,06,15,44,999.09
2016,03,06,15,45,999.12
2016,03,06,15,46,999.15
2016,03,06,15,47,999.15
2016,03,06,15,48,999.15
2016,03,06,15,49,999.19
2016,03,06,15,50,999.22
2016,03,06,15,51,999.22
2016,03,06,15,52,999.22
2016,03,06,15,53,999.26
2016,03,06,15,54,999.32
2016,03,06,15,55,999.32
2016,03,06,15,56,999.39
2016,03,06,15,57,999.39
2016,03,06,15,58,999.39
2016,03,06,15,59,999.39
2016,03,06,16,00,999.36
2016,03,06,16,01,999.32
2016,03,06,16,02,999.36
2016,03,06,16,03,999.32
2016,03,06,16,04,999.36
2016,03,06,16,05,999.39
2016,03,06,16,06,999.39
2016,03,06,16,07,999.43
2016,03,06,16,08,999.39
2016,03,06,16,09,999.36
2016,03,06,16,10,999.36
2016,03,06,16,11,999.39
2016,03,06,16,12,999.39
2016,03,06,16,13,999.39
2016,03,06,16,14,999.39
2016,03,06,16,15,999.39
2016,03,06,16,16,999.43
2016,03,06,16,17,999.43
2016,03,06,16,18,999.43
2016,03,06,16,19,999.43
2016,03,06,16,20,999.43
2016,03,06,16,21,999.43
2016,03,06,16,22,999.46
2016,03,06,16,23,999.46
2016,03,06,16,24,999.46
2016,03,06,16,25,999.49
2016,03,06,16,26,999.49
2016,03,06,16,27,999.49
2016,03,06,16,28,999.49
2016,03,06,16,29,999.49
2016,03,06,16,30,999.46
2016,03,06,16,31,999.49
2016,03,06,16,32,999.49
2016,03,06,16,33,999.46
2016,03,06,16,34,999.49
2016,03,06,16,35,999.53
2016,03,06,16,36,999.56